SL-16 DEB, 22339

Orbit data source: Space-Track

SL-16 DEB, 22339 is space debris in LEO originally from a launch on Fri, 25 Dec 1992 UTC launched from the Tyuratam Missile And Space Complex (TTMTR). Debris objects in space refer to the collection of defunct objects orbiting the Earth. Examples of debris include non-operational satellites, rocket bodies, and fragments generated from explosions, collisions, or faulty payload assembly.

Loading next visibility...
Identifier
22339, 1992-093AC
Orbit
LEO
Country
Flag of CISCIS
Related business
Manufacturer
Unknown
Mission
Spacecraft
Bus & Motor
Unknown
Mass
Unknown
Launch date (UTC)
1992-12-25 (33 years ago)
Launch vehicle
Unknown
Launch site
Tyuratam Missile And Space Complex (TTMTR)
Object type
Payload
Rocket body
Debris
Shape & HBR
Unknown
Radar Cross Section
Medium (>0.1 m² and <1 m²)

Expand to show TLE details & history
Last TLE update: 1 day ago

TLE from 1 day ago
0 SL-16 DEB
1 22339U 92093AC  25241.98743816  .00000159  00000-0  68556-4 0  9991
2 22339  70.8093  87.3591 0127603 250.8300 107.8985 14.35170380688291
Epoch: 2025-08-29T23:41Z
TLE epoch observation values (Epoch: 2025-08-29T23:41:54.657Z)
Latitude
-0.00001°
Longitude
113.45316°
Altitude
806.013 km
Speed
7.435 km/s
True Right ascension
05h 49m 26s
True Declination
0° 00' 00"
Sunlit
Object was in daylight at epoch
Visualization orbit readout
Latitude
Unknown
Longitude
Unknown
Altitude
Unknown
Speed
Unknown
Apparent Right ascension
Unknown
Apparent Declination
Unknown
Sunlit
N/A
Visualization observer readout
Local Sidereal Time
16:00:56
Azimuth
Unknown
Elevation
Unknown
Doppler factor
Unknown
Orbital elements
Apogee altitude
863.667 km
Perigee altitude
681.181 km
Semi-major axis
7,150.561 km
Eccentricity
0.01276
Inclination
70.8093°
RAAN
87.3591°
Arg. of periapsis
250.83°
True anomaly
109.28303°
Mean anomaly
107.8985°
Eccentric anomaly
108.59146°
Mean motion
3.58949 °/min
Orbital period
100.29 mins
BSTAR
0.000068556
Loading maneuver chart data...
Computing Atmospheric mass density...
Loading historical data...
Loading historical data...
Loading historical data...
Loading historical data...
Loading historical data...
Loading historical data...
Loading historical data...

Documentation

Showing up to 5 results
|